Snowfall_Accumulation
0.0 0.0 0.0 0.0 0.0 0.0 0.0 0.0 0.0 0.0 0.0 0.0 0.0 0.0 0.0 0.0 0.0 0.0 0.0 0.0 0.0 0.0 0.0 0.0 0.0 0.0 0.0 0.0 0.0 0.0 0.0 0.0 0.0 0.0 0.0 0.0 0.0 0.0 0.0 0.0 0.0 0.0 0.0 0.0 0.0
0.0 0.0 0.0 0.0 0.0 0.0 0.0 0.0 0.0 0.0 0.0 0.0 0.0 0.0 0.0 0.0 0.0 0.0 0.0 0.0 0.0 0.0 0.0 0.0 0.0 0.0 0.0 0.0 0.0 0.0 0.0 0.0 0.0 0.0 0.0 0.0 0.0 0.0 0.0 0.0 0.0 0.0 0.0 0.0 0.0
0.0 0.0 0.0 0.0 0.0 0.0 0.0 0.0 0.0 0.0 0.0 0.0 0.0 0.0 0.0 0.0 0.0 0.0 0.0 0.0 0.0 0.0 0.0 0.0 0.0 0.0 0.0 0.0 0.0 0.0 0.0 0.0 0.0 0.0 0.0 0.0 0.0 0.0 0.0 0.0 0.0 0.0 0.0 0.0 0.0
0.0 0.0 0.0 0.0 0.0 0.0 0.0 0.0 0.0 0.0 0.0 0.0 0.0 0.0 0.0 0.0 0.0 0.0 0.0 0.0 0.0 0.0 0.0 0.0 0.0 0.0 0.0 0.0 0.0 0.0 0.0 0.0 0.0 0.0 0.0 0.0 0.0 0.0 0.0 0.0 0.0 0.0 0.0 0.0 0.0
0.0 0.0 0.0 0.0 0.0 0.0 0.0 0.0 0.0 0.0 0.0 0.0 0.0 0.0 0.0 0.0 0.0 0.0 0.0 0.0 0.0 0.0 0.0 0.0 0.0 0.0 0.0 0.0 0.0 0.0 0.0 0.0 0.0 0.0 0.0 0.0 0.0 0.0 0.0 0.0 0.0 0.0 0.0 0.0 0.0
0.0 0.0 0.0 0.0 0.0 0.0 0.0 0.0 0.0 0.0 0.0 0.0 0.0 0.0 0.0 0.0 0.0 0.0 0.0 0.0 0.0 0.0 0.0 0.0 0.0 0.0 0.0 0.0 0.0 0.0 0.0 0.0 0.0 0.0 0.0 0.0 0.0 0.0 0.0 0.0 0.0 0.0 0.0 0.0 0.0
0.0 0.0 0.0 0.0 0.0 0.0 0.0 0.0 0.0 0.0 0.0 0.0 0.0 0.0 0.0 0.0 0.0 0.0 0.0 0.0 0.0 0.0 0.0 0.0 0.0 0.0 0.0 0.0 0.0 0.0 0.0 0.0 0.0 0.0 0.0 0.0 0.0 0.0 0.0 0.0 0.0 0.0 0.0 0.0 0.0
0.0 0.0 0.0 0.0 0.0 0.0 0.0 0.0 0.0 0.0 0.0 0.0 0.0 0.0 0.0 0.0 0.0 0.0 0.0 0.0 0.0 0.0 0.0 0.0 0.0 0.0 0.0 0.0 0.0 0.0 0.3 0.4 0.0 0.0 0.0 0.0 0.2 0.0 0.0 0.0 0.0 0.0 0.0 0.0 0.0
0.0 0.0 0.0 0.0 0.0 0.0 0.0 0.0 0.0 0.0 0.0 0.0 0.0 0.0 0.0 0.0 0.0 0.0 0.0 0.0 0.0 0.0 0.0 0.0 0.0 0.0 0.0 0.0 1.0 0.5 1.8 0.1 0.0 0.0 0.0 0.0 0.1 0.0 0.0 0.0 0.0 0.0 0.0 0.0 0.0
0.0 0.0 0.0 0.0 0.0 0.0 0.0 0.0 0.0 0.0 0.0 0.0 0.0 0.0 0.0 0.0 0.0 0.0 0.0 0.0 0.0 0.0 0.0 0.0 0.0 0.0 0.0 0.9 3.0 0.4 0.7 0.5 0.4 0.0 0.0 0.0 0.0 0.0 0.0 0.0 0.0 0.0 0.0 0.0 0.0
0.0 0.0 0.0 0.0 0.0 0.0 0.0 0.0 0.0 0.0 0.0 0.0 0.0 0.0 0.0 0.0 0.0 0.0 0.0 0.0 0.0 0.0 0.0 0.0 0.4 0.7 0.0 0.0 0.0 1.0 1.7 1.5 0.0 0.0 0.2 0.0 0.3 0.0 0.0 0.0 0.0 0.0 0.0 0.0 0.0
0.0 0.0 0.0 0.0 0.0 0.0 0.0 0.0 0.0 0.0 0.0 0.0 0.0 0.0 0.0 0.0 0.0 0.0 0.0 0.0 0.0 0.0 0.0 0.0 0.7 0.0 0.0 0.0 0.8 0.8 2.8 3.3 0.6 0.0 0.0 0.6 0.4 0.0 0.0 0.0 0.0 0.0 0.0 0.0 0.0
0.0 0.0 0.0 0.0 0.0 0.0 0.0 0.0 0.0 0.0 0.0 0.0 0.0 0.0 0.0 0.0 0.0 0.0 0.0 0.0 0.0 0.0 0.2 0.4 0.0 0.0 0.0 0.0 1.5 0.8 3.4 1.8 2.3 0.4 0.1 0.6 1.0 0.0 0.0 0.0 0.0 0.0 0.0 0.0 0.0
0.0 0.0 0.0 0.0 0.0 0.0 0.0 0.0 0.0 0.0 0.0 0.0 0.0 0.0 0.0 0.0 0.1 0.0 0.0 0.0 0.3 1.6 0.0 0.9 0.0 0.0 0.1 0.2 0.1 3.3 0.0 0.0 0.6 3.6 6.8 0.0 9.5 0.0 0.0 0.0 0.0 0.0 0.0 0.0 0.0
0.0 0.0 0.0 0.0 0.0 0.0 0.0 0.0 0.0 0.0 0.0 0.0 0.0 0.0 0.0 0.0 0.0 0.0 0.0 0.0 1.5 1.5 1.8 2.0 0.0 0.0 0.4 0.0 0.0 0.8 0.0 0.1 0.9 2.9 5.7 3.3 12.2 1.1 0.0 0.0 0.0 0.0 0.0 0.0 0.0
0.0 0.0 0.0 0.0 0.0 0.0 0.0 0.0 0.0 0.9 0.3 0.0 0.0 0.0 0.0 0.0 0.0 0.0 0.0 0.0 0.0 0.1 0.0 0.6 0.0 0.0 0.7 0.4 0.1 0.0 0.0 0.1 0.3 2.1 18.5 2.9 3.8 0.1 0.1 0.0 0.0 0.0 0.0 0.0 0.0
0.0 0.0 0.0 0.0 0.0 0.0 0.0 0.0 0.2 0.8 0.0 0.0 0.0 0.0 0.0 0.0 0.0 0.0 0.1 2.3 5.6 5.5 0.7 0.0 0.8 0.3 0.8 1.5 0.0 2.5 5.9 10.7 9.9 12.1 7.1 0.6 3.8 2.3 0.0 0.0 0.0 0.0 0.0 0.0 0.0
0.0 0.0 0.0 0.0 0.0 0.0 0.0 0.0 0.1 0.0 0.0 0.0 0.0 0.0 0.0 0.0 0.0 0.0 0.2 1.7 2.5 3.2 3.3 2.5 2.0 1.7 0.8 5.2 8.8 1.5 7.9 9.9 7.0 1.3 0.1 0.0 2.3 0.3 0.0 0.0 0.0 0.0 0.0 0.0 0.0
0.0 0.0 0.0 0.0 0.0 0.0 0.0 0.0 0.8 0.3 0.1 0.1 0.0 0.0 0.0 0.0 0.1 0.0 1.3 2.7 2.5 2.6 7.7 4.6 1.1 0.2 0.6 0.6 4.3 2.9 5.1 1.3 7.1 1.0 3.0 0.4 0.1 0.0 0.0 0.0 0.0 0.0 0.0 0.0 0.0
0.0 0.0 0.0 0.0 0.0 0.0 0.2 0.5 0.0 0.2 0.0 0.0 1.1 0.4 1.3 0.0 0.1 0.1 0.7 1.7 0.0 0.0 0.1 3.8 4.0 0.1 0.8 0.9 1.5 6.7 5.1 3.7 11.2 10.9 2.4 0.4 1.5 1.5 0.6 0.0 0.0 0.0 0.0 0.0 0.0
0.0 0.0 0.0 0.0 0.0 0.0 0.4 0.5 0.0 0.0 0.1 0.4 0.5 0.4 0.3 1.1 0.1 0.1 0.3 0.3 0.0 0.0 0.0 1.9 4.3 0.1 0.6 4.5 11.2 5.5 18.2 8.3 5.9 3.2 5.1 1.9 3.1 2.3 2.6 0.9 0.1 0.0 0.0 0.0 0.0
0.0 0.0 0.0 0.0 0.0 0.0 0.3 0.1 0.0 0.0 0.0 0.2 0.3 0.4 1.2 0.7 0.5 0.1 0.6 0.5 0.0 0.0 0.2 1.7 4.9 2.7 1.8 3.9 5.8 4.4 13.1 15.2 7.5 2.5 5.5 9.4 7.5 2.1 3.8 2.5 1.0 0.0 0.0 0.0 0.0
0.0 0.0 0.0 0.0 0.2 0.2 0.0 0.0 0.1 0.0 0.2 0.1 0.2 0.8 0.3 0.8 1.8 0.1 0.0 0.0 0.0 0.0 1.2 3.1 1.4 0.7 5.7 3.7 2.3 7.2 8.3 11.7 6.0 4.8 5.4 17.0 19.1 5.1 2.8 3.6 4.8 0.8 0.0 0.0 0.0
0.0 0.1 0.0 0.0 0.0 0.2 0.5 0.0 0.0 0.1 0.0 0.3 0.3 0.3 0.5 0.2 0.0 0.0 0.2 0.0 0.0 0.0 0.1 0.0 0.2 2.1 7.3 7.3 6.8 7.7 5.9 8.6 8.1 9.4 7.8 17.5 19.6 14.3 9.3 4.7 5.7 1.6 0.2 0.0 0.0
0.1 0.4 0.1 0.0 0.0 0.2 0.5 0.9 0.7 0.5 0.3 0.2 0.0 0.7 1.2 1.3 0.3 0.2 0.0 0.0 0.0 0.0 0.0 0.1 0.1 0.1 1.0 1.6 4.7 7.3 10.1 8.9 11.0 10.7 13.0 22.0 15.8 18.0 14.6 11.9 8.3 2.5 0.5 0.1 0.0
0.4 0.8 1.0 0.0 0.1 0.2 0.5 0.8 0.5 0.9 1.0 0.2 0.8 0.2 0.6 1.5 1.3 0.7 0.3 0.0 0.2 0.0 0.0 0.0 0.1 0.0 0.1 1.3 3.9 8.0 7.3 8.1 9.8 10.8 13.7 13.2 11.5 11.6 14.5 11.2 7.2 3.4 1.3 0.4 0.0
0.0 0.0 3.2 0.0 0.1 0.6 0.5 0.9 1.5 1.3 0.0 0.4 0.5 0.6 0.4 0.3 0.0 0.0 0.0 0.0 0.0 0.0 0.1 0.1 0.2 0.2 0.5 0.8 1.0 5.3 15.0 12.4 12.8 14.6 15.9 15.4 16.8 12.1 12.1 9.3 5.9 2.9 1.8 1.0 0.2